Weather History for KLCG - January, 2013

Change the Weather History Date:

Sunday, January 20, 2013

  Actual Average (KOFK) Record (KOFK)
Temperature  
Mean Temperature 14 °F 22 °F  
Max Temperature 17 °F 33 °F 66 °F (1944)
Min Temperature 10 °F 12 °F -26 °F (1962)
Degree Days  
Heating Degree Days 52 42  
Month to date heating degree days 859  
Since 1 July heating degree days 3565  
Cooling Degree Days 0 0  
Month to date cooling degree days 0  
Year to date cooling degree days 0  
Moisture  
Dew Point 6 °F    
Average Humidity 71    
Maximum Humidity 84    
Minimum Humidity 59    
Precipitation  
Precipitation 0.00 in 0.02 in 0.60 in (1990)
Month to date precipitation 0.37  
Year to date precipitation 0.37  
Snow  
Snow 0.00 in 0.20 in - ()
Month to date snowfall 3.9  
Since 1 July snowfall 14.8  
Snow Depth -    
Sea Level Pressure  
Sea Level Pressure 30.37 in    
Wind  
Wind Speed 8 mph (NNW)    
Max Wind Speed 17 mph    
Max Gust Speed 23 mph    
Visibility 10 miles    
Events Snow    
T = Trace of Precipitation, MM = Missing Value Source: NWS Daily Summary

Daily Weather History Graph

Daily Weather History Graph

Search for Another Location

Airport or City:

Trip Planner

Search our weather history database for the weather conditions in past years. The results will help you decide how hot, cold, wet, or windy it might be!

Date:

Astronomy

Jan. 20, 2013 Rise Set
Actual Time 7:51 AM CST 5:27 PM CST
Civil Twilight 7:20 AM CST 5:57 PM CST
Nautical Twilight 6:46 AM CST 6:32 PM CST
Astronomical Twilight 6:12 AM CST 7:05 PM CST
Moon 12:29 PM CST (1/20) 2:24 AM CST (1/20)
Length of Visible Light 10h 37m
Length of Day
9h 36m
Waxing Gibbous, 66% of the Moon is Illuminated
Jan 20
Waxing Gibbous
Jan 26
Full
Feb 3
Last Quarter
Feb 10
New
Feb 17
First Quarter

Hourly Weather History & Observations

Time (CST) Temp. Windchill Dew Point Humidity Pressure Visibility Wind Dir Wind Speed Gust Speed Precip Events Conditions
12:15 AM 14.4 °F 0.9 °F 5.4 °F 67% 30.35 in 10.0 mi NNW 11.5 mph - N/A   Clear
12:35 AM 13.8 °F 3.7 °F 5.0 °F 68% 30.36 in 10.0 mi NNW 6.9 mph - N/A   Clear
12:55 AM 14.0 °F 2.0 °F 5.4 °F 69% 30.35 in 10.0 mi NW 9.2 mph - N/A   Clear
1:15 AM 13.6 °F 3.5 °F 5.4 °F 70% 30.34 in 10.0 mi North 6.9 mph - N/A   Clear
1:35 AM 13.3 °F 5.6 °F 4.8 °F 69% 30.34 in 10.0 mi North 4.6 mph - N/A   Clear
1:55 AM 12.9 °F 2.6 °F 5.5 °F 72% 30.33 in 10.0 mi North 6.9 mph - N/A   Clear
2:15 AM 12.7 °F -0.4 °F 5.2 °F 72% 30.32 in 10.0 mi North 10.4 mph - N/A   Clear
2:35 AM 12.2 °F 4.3 °F 4.1 °F 70% 30.33 in 10.0 mi North 4.6 mph - N/A   Clear
2:55 AM 12.2 °F 1.7 °F 3.0 °F 67% 30.34 in 10.0 mi NNW 6.9 mph - N/A   Clear
3:15 AM 12.2 °F 2.9 °F 3.4 °F 68% 30.34 in 10.0 mi North 5.8 mph - N/A   Clear
3:35 AM 12.2 °F 4.3 °F 3.4 °F 68% 30.34 in 10.0 mi North 4.6 mph - N/A   Clear
3:55 AM 12.2 °F 2.9 °F 3.6 °F 68% 30.33 in 10.0 mi NNW 5.8 mph - N/A   Clear
4:15 AM 12.4 °F 2.0 °F 2.8 °F 66% 30.32 in 10.0 mi North 6.9 mph - N/A   Clear
4:35 AM 12.4 °F 6.3 °F 2.7 °F 65% 30.32 in 10.0 mi North 3.5 mph - N/A   Clear
4:55 AM 12.6 °F 3.4 °F 2.8 °F 65% 30.32 in 10.0 mi NNW 5.8 mph - N/A   Scattered Clouds
5:15 AM 12.7 °F 2.4 °F 3.9 °F 68% 30.31 in 10.0 mi North 6.9 mph - N/A   Mostly Cloudy
5:35 AM 12.6 °F 2.2 °F 3.7 °F 68% 30.31 in 10.0 mi North 6.9 mph - N/A   Mostly Cloudy
5:55 AM 12.2 °F 1.7 °F 4.1 °F 70% 30.31 in 10.0 mi North 6.9 mph - N/A   Mostly Cloudy
6:15 AM 12.2 °F 2.9 °F 2.8 °F 66% 30.32 in 10.0 mi North 5.8 mph - N/A   Mostly Cloudy
6:35 AM 12.2 °F 2.9 °F 3.4 °F 68% 30.32 in 10.0 mi NNE 5.8 mph - N/A   Mostly Cloudy
7:15 AM 12.4 °F 2.0 °F 3.6 °F 68% 30.32 in 10.0 mi NNE 6.9 mph - N/A   Scattered Clouds
7:35 AM 12.2 °F 2.9 °F 3.7 °F 69% 30.32 in 10.0 mi NNE 5.8 mph - N/A   Clear
7:55 AM 12.2 °F 4.3 °F 3.4 °F 68% 30.33 in 10.0 mi NNE 4.6 mph - N/A   Mostly Cloudy
8:15 AM 12.7 °F 3.6 °F 3.6 °F 67% 30.34 in 10.0 mi North 5.8 mph - N/A   Mostly Cloudy
8:35 AM 12.7 °F 5.0 °F 3.0 °F 65% 30.35 in 10.0 mi NNE 4.6 mph - N/A   Overcast
8:55 AM 12.7 °F 6.7 °F 2.5 °F 64% 30.36 in 10.0 mi NNE 3.5 mph - N/A   Overcast
9:15 AM 13.1 °F 7.1 °F 2.8 °F 64% 30.37 in 10.0 mi NNE 3.5 mph - N/A   Overcast
9:35 AM 13.6 °F 6.0 °F 3.7 °F 65% 30.37 in 10.0 mi NNE 4.6 mph - N/A   Overcast
9:55 AM 13.6 °F 7.7 °F 2.7 °F 62% 30.39 in 10.0 mi North 3.5 mph - N/A   Overcast
10:15 AM 14.0 °F - 2.8 °F 61% 30.39 in 10.0 mi Calm Calm - N/A   Overcast
10:35 AM 14.0 °F 6.5 °F 3.0 °F 62% 30.41 in 10.0 mi NNW 4.6 mph - N/A   Overcast
10:55 AM 14.5 °F 8.8 °F 3.2 °F 61% 30.41 in 10.0 mi North 3.5 mph - N/A   Overcast
11:15 AM 14.7 °F 7.3 °F 2.7 °F 59% 30.41 in 10.0 mi NNW 4.6 mph - N/A   Overcast
11:35 AM 14.5 °F 4.6 °F 5.7 °F 68% 30.41 in 3.0 mi North 6.9 mph - N/A Snow Light Snow
11:55 AM 14.4 °F 3.3 °F 7.7 °F 75% 30.40 in 2.5 mi North 8.1 mph - N/A Snow Light Snow
12:15 PM 14.7 °F 3.8 °F 8.4 °F 76% 30.40 in 3.0 mi NNW 8.1 mph - N/A Snow Light Snow
12:35 PM 14.7 °F 4.8 °F 8.2 °F 75% 30.40 in 10.0 mi North 6.9 mph - N/A   Overcast
12:55 PM 15.1 °F 4.2 °F 9.0 °F 77% 30.40 in 10.0 mi NNW 8.1 mph - N/A Snow Light Snow
1:15 PM 15.6 °F 3.2 °F 8.8 °F 74% 30.39 in 10.0 mi NW 10.4 mph - N/A Snow Light Snow
1:35 PM 15.6 °F 3.2 °F 9.0 °F 75% 30.39 in 10.0 mi NNW 10.4 mph - N/A Snow Light Snow
1:55 PM 15.8 °F 3.4 °F 9.3 °F 76% 30.39 in 7.0 mi NW 10.4 mph 16.1 mph N/A Snow Light Snow
2:15 PM 16.2 °F 1.9 °F 9.5 °F 75% 30.38 in 7.0 mi NNW 13.8 mph - N/A Snow Light Snow
2:35 PM 16.5 °F 3.0 °F 9.0 °F 72% 30.38 in 10.0 mi NNW 12.7 mph 19.6 mph N/A Snow Light Snow
2:55 PM 17.1 °F 4.3 °F 9.7 °F 73% 30.38 in 10.0 mi North 11.5 mph 16.1 mph N/A   Overcast
3:15 PM 17.2 °F 4.5 °F 9.7 °F 72% 30.38 in 10.0 mi NNW 11.5 mph - N/A   Overcast
3:35 PM 16.5 °F 3.0 °F 8.6 °F 71% 30.37 in 10.0 mi NNW 12.7 mph - N/A   Scattered Clouds
3:55 PM 16.5 °F 3.6 °F 9.1 °F 73% 30.38 in 10.0 mi NW 11.5 mph - N/A Snow Light Snow
4:15 PM 17.2 °F 5.2 °F 9.3 °F 71% 30.38 in 10.0 mi North 10.4 mph - N/A   Mostly Cloudy
4:35 PM 16.5 °F 5.1 °F 8.1 °F 69% 30.37 in 10.0 mi North 9.2 mph - N/A   Scattered Clouds
4:55 PM 15.8 °F 5.1 °F 7.7 °F 70% 30.37 in 10.0 mi NNW 8.1 mph - N/A   Clear
5:15 PM 14.7 °F 7.3 °F 7.7 °F 74% 30.37 in 10.0 mi NNW 4.6 mph - N/A   Clear
5:35 PM 13.5 °F 5.8 °F 7.5 °F 77% 30.37 in 10.0 mi NNW 4.6 mph - N/A   Clear
5:55 PM 12.2 °F 4.3 °F 7.2 °F 80% 30.38 in 10.0 mi North 4.6 mph - N/A   Clear
6:15 PM 11.3 °F 5.1 °F 7.0 °F 83% 30.38 in 10.0 mi North 3.5 mph - N/A   Clear
6:35 PM 10.6 °F - 6.6 °F 84% 30.39 in 10.0 mi Calm Calm - N/A   Scattered Clouds
6:55 PM 11.8 °F - 7.3 °F 82% 30.39 in 10.0 mi Calm Calm - N/A   Overcast
7:15 PM 12.2 °F - 7.7 °F 82% 30.39 in 10.0 mi Calm Calm - N/A   Overcast
7:35 PM 13.6 °F 7.7 °F 8.4 °F 80% 30.39 in 10.0 mi North 3.5 mph - N/A   Overcast
7:55 PM 13.8 °F 8.0 °F 8.6 °F 80% 30.38 in 10.0 mi NW 3.5 mph - N/A   Overcast
8:15 PM 14.7 °F 4.8 °F 9.3 °F 79% 30.38 in 10.0 mi NNW 6.9 mph - N/A   Overcast
8:35 PM 15.3 °F 2.8 °F 10.0 °F 80% 30.38 in 10.0 mi NNW 10.4 mph - N/A   Overcast
8:55 PM 15.3 °F 1.4 °F 9.5 °F 78% 30.37 in 10.0 mi NNW 12.7 mph 18.4 mph N/A   Overcast
9:15 PM 14.9 °F 2.3 °F 9.9 °F 80% 30.38 in 10.0 mi NNW 10.4 mph 16.1 mph N/A   Overcast
9:35 PM 13.8 °F -1.7 °F 4.5 °F 66% 30.38 in 10.0 mi NNW 15.0 mph 23.0 mph N/A   Overcast
9:55 PM 13.5 °F -2.1 °F 4.3 °F 67% 30.38 in 10.0 mi NNW 15.0 mph - N/A   Overcast
10:15 PM 13.1 °F -0.7 °F 4.1 °F 67% 30.39 in 10.0 mi NNW 11.5 mph - N/A   Overcast
10:35 PM 12.7 °F 0.4 °F 4.8 °F 71% 30.39 in 10.0 mi NNW 9.2 mph - N/A   Overcast
10:55 PM 12.7 °F -3.0 °F 5.2 °F 72% 30.39 in 10.0 mi NNW 15.0 mph 20.7 mph N/A   Overcast
11:15 PM 12.6 °F -3.3 °F 5.5 °F 74% 30.40 in 10.0 mi NNW 15.0 mph 18.4 mph N/A   Overcast
11:35 PM 12.0 °F -4.0 °F 3.2 °F 68% 30.40 in 10.0 mi NNW 15.0 mph 20.7 mph N/A   Overcast
11:55 PM 10.6 °F -6.9 °F 0.7 °F 64% 30.41 in 10.0 mi NNW 17.3 mph 21.9 mph N/A   Overcast